Time,TemperatureF,DewpointF,PressureIn,WindDirection,WindDirectionDegrees,WindSpeedMPH,WindSpeedGustMPH,Humidity,HourlyPrecipIn,Conditions,Clouds,dailyrainin,SoftwareType,DateUTC
2013-02-17 00:02:00,27.0,15.0,29.23,NNW,347,2.0,11.0,60,0.00,,,0.02,,2013-02-17 05:02:00,
2013-02-17 00:12:00,27.0,15.0,29.23,NW,321,2.0,9.0,60,0.00,,,0.02,,2013-02-17 05:12:00,
2013-02-17 00:22:00,27.0,15.0,29.23,NW,321,2.0,9.0,60,0.00,,,0.02,,2013-02-17 05:22:00,
2013-02-17 00:33:00,27.0,15.0,29.22,NW,314,2.0,10.0,60,0.00,,,0.02,,2013-02-17 05:33:00,
2013-02-17 00:42:00,27.0,15.0,29.22,NW,314,2.0,10.0,60,0.00,,,0.02,,2013-02-17 05:42:00,
2013-02-17 00:52:00,27.0,15.0,29.22,NW,317,2.0,7.0,60,0.00,,,0.02,,2013-02-17 05:52:00,
2013-02-17 01:02:00,27.0,15.0,29.22,NNW,342,0.0,5.0,60,0.00,,,0.02,,2013-02-17 06:02:00,
2013-02-17 01:11:00,27.0,15.0,29.22,NNW,342,0.0,5.0,60,0.00,,,0.02,,2013-02-17 06:11:00,
2013-02-17 01:21:00,26.0,13.0,29.22,North,355,3.0,7.0,58,0.00,,,0.02,,2013-02-17 06:21:00,
2013-02-17 01:32:00,26.0,14.0,29.21,NNW,342,1.0,10.0,59,0.00,,,0.02,,2013-02-17 06:32:00,
2013-02-17 01:42:00,26.0,14.0,29.21,NNW,342,1.0,10.0,59,0.00,,,0.02,,2013-02-17 06:42:00,
2013-02-17 01:51:00,26.0,13.0,29.20,NNW,340,2.0,10.0,58,0.00,,,0.02,,2013-02-17 06:51:00,
2013-02-17 02:01:00,26.0,13.0,29.20,NW,306,2.0,9.0,57,0.00,,,0.02,,2013-02-17 07:01:00,
2013-02-17 02:11:00,25.0,11.0,29.20,NE,56,5.0,14.0,54,0.00,,,0.02,,2013-02-17 07:11:00,
2013-02-17 02:21:00,25.0,11.0,29.20,NE,56,5.0,14.0,54,0.00,,,0.02,,2013-02-17 07:21:00,
2013-02-17 02:32:00,25.0,11.0,29.21,NNW,336,3.0,10.0,55,0.00,,,0.01,,2013-02-17 07:32:00,
2013-02-17 02:42:00,25.0,11.0,29.21,NNW,336,3.0,10.0,55,0.00,,,0.01,,2013-02-17 07:42:00,
2013-02-17 02:51:00,25.0,11.0,29.20,North,5,4.0,11.0,55,0.00,,,0.01,,2013-02-17 07:51:00,
2013-02-17 03:01:00,25.0,11.0,29.20,WNW,298,3.0,10.0,55,0.00,,,0.01,,2013-02-17 08:01:00,
2013-02-17 03:11:00,25.0,11.0,29.20,WNW,298,3.0,10.0,55,0.00,,,0.01,,2013-02-17 08:11:00,
2013-02-17 03:21:00,24.0,10.0,29.19,North,5,2.0,9.0,54,0.00,,,0.01,,2013-02-17 08:21:00,
2013-02-17 03:32:00,24.0,10.0,29.18,NNW,345,5.0,11.0,55,0.00,,,0.00,,2013-02-17 08:32:00,
2013-02-17 03:42:00,24.0,10.0,29.18,NNW,345,5.0,11.0,55,0.00,,,0.00,,2013-02-17 08:42:00,
2013-02-17 03:52:00,24.0,10.0,29.18,NE,50,1.0,13.0,54,0.00,,,0.00,,2013-02-17 08:52:00,
2013-02-17 04:02:00,24.0,11.0,29.18,North,360,4.0,10.0,56,0.00,,,0.00,,2013-02-17 09:02:00,
2013-02-17 04:11:00,24.0,11.0,29.18,North,360,4.0,10.0,56,0.00,,,0.00,,2013-02-17 09:11:00,
2013-02-17 04:21:00,24.0,11.0,29.18,North,360,3.0,10.0,57,0.00,,,0.00,,2013-02-17 09:21:00,
2013-02-17 04:32:00,23.0,10.0,29.18,ENE,61,3.0,13.0,57,0.00,,,0.00,,2013-02-17 09:32:00,
2013-02-17 04:42:00,23.0,10.0,29.18,ENE,61,3.0,13.0,57,0.00,,,0.00,,2013-02-17 09:42:00,
2013-02-17 04:51:00,23.0,10.0,29.18,ENE,63,4.0,15.0,57,0.00,,,0.00,,2013-02-17 09:51:00,
2013-02-17 05:01:00,23.0,10.0,29.18,NW,322,3.0,12.0,56,0.00,,,0.00,,2013-02-17 10:01:00,
2013-02-17 05:11:00,23.0,10.0,29.18,NW,322,3.0,12.0,56,0.00,,,0.00,,2013-02-17 10:11:00,
2013-02-17 05:21:00,23.0,10.0,29.16,NW,325,1.0,8.0,58,0.00,,,0.00,,2013-02-17 10:21:00,
2013-02-17 05:32:00,23.0,10.0,29.16,NW,304,4.0,11.0,57,0.00,,,0.00,,2013-02-17 10:32:00,
2013-02-17 05:42:00,23.0,10.0,29.16,NW,304,4.0,11.0,57,0.00,,,0.00,,2013-02-17 10:42:00,
2013-02-17 05:52:00,23.0,10.0,29.16,NW,310,3.0,11.0,56,0.00,,,0.00,,2013-02-17 10:52:00,
2013-02-17 06:01:00,23.0,10.0,29.15,West,273,3.0,13.0,57,0.00,,,0.00,,2013-02-17 11:01:00,
2013-02-17 06:11:00,23.0,10.0,29.15,West,273,3.0,13.0,57,0.00,,,0.00,,2013-02-17 11:11:00,
2013-02-17 06:21:00,22.0,9.0,29.15,NW,310,3.0,10.0,56,0.00,,,0.00,,2013-02-17 11:21:00,
2013-02-17 06:32:00,22.0,9.0,29.15,NNW,346,5.0,10.0,57,0.00,,,0.00,,2013-02-17 11:32:00,
2013-02-17 06:42:00,22.0,9.0,29.15,NNW,346,5.0,10.0,57,0.00,,,0.00,,2013-02-17 11:42:00,
2013-02-17 06:52:00,22.0,9.0,29.15,NW,311,2.0,10.0,57,0.00,,,0.00,,2013-02-17 11:52:00,
2013-02-17 07:03:00,22.0,10.0,29.14,NW,317,2.0,11.0,58,0.00,,,0.00,,2013-02-17 12:03:00,
2013-02-17 07:11:00,22.0,10.0,29.14,NW,317,2.0,11.0,58,0.00,,,0.00,,2013-02-17 12:11:00,
2013-02-17 07:22:00,22.0,9.0,29.14,NW,310,3.0,7.0,56,0.00,,,0.00,,2013-02-17 12:22:00,
2013-02-17 07:32:00,22.0,9.0,29.14,NNW,336,3.0,12.0,56,0.00,,,0.00,,2013-02-17 12:32:00,
2013-02-17 07:42:00,22.0,9.0,29.14,NNW,336,3.0,12.0,56,0.00,,,0.00,,2013-02-17 12:42:00,
2013-02-17 07:52:00,22.0,8.0,29.15,NW,305,1.0,10.0,55,0.00,,,0.00,,2013-02-17 12:52:00,
2013-02-17 08:02:00,22.0,8.0,29.15,NW,326,2.0,5.0,54,0.00,,,0.00,,2013-02-17 13:02:00,
2013-02-17 08:12:00,22.0,8.0,29.15,NW,326,2.0,5.0,54,0.00,,,0.00,,2013-02-17 13:12:00,
2013-02-17 08:22:00,22.0,8.0,29.15,North,11,3.0,11.0,54,0.00,,,0.00,,2013-02-17 13:22:00,
2013-02-17 08:32:00,22.0,8.0,29.16,NW,320,0.0,5.0,54,0.00,,,0.00,,2013-02-17 13:32:00,
2013-02-17 08:42:00,22.0,8.0,29.16,NW,320,0.0,5.0,54,0.00,,,0.00,,2013-02-17 13:42:00,
2013-02-17 08:51:00,23.0,9.0,29.15,NW,321,1.0,5.0,54,0.00,,,0.00,,2013-02-17 13:51:00,
2013-02-17 09:01:00,23.0,8.0,29.14,NNE,33,2.0,11.0,52,0.00,,,0.00,,2013-02-17 14:01:00,
2013-02-17 09:11:00,23.0,8.0,29.14,NNE,33,2.0,11.0,52,0.00,,,0.00,,2013-02-17 14:11:00,
2013-02-17 09:22:00,23.0,8.0,29.14,NW,304,4.0,10.0,51,0.00,,,0.00,,2013-02-17 14:22:00,
2013-02-17 09:32:00,23.0,8.0,29.14,WNW,294,2.0,8.0,51,0.00,,,0.00,,2013-02-17 14:32:00,
2013-02-17 09:42:00,23.0,8.0,29.14,WNW,294,2.0,8.0,51,0.00,,,0.00,,2013-02-17 14:42:00,
2013-02-17 09:53:00,24.0,7.0,29.13,WNW,288,3.0,7.0,47,0.00,,,0.00,,2013-02-17 14:53:00,
2013-02-17 10:02:00,25.0,6.0,29.13,North,360,4.0,9.0,44,0.00,,,0.00,,2013-02-17 15:02:00,
2013-02-17 10:11:00,25.0,6.0,29.13,North,360,4.0,9.0,44,0.00,,,0.00,,2013-02-17 15:11:00,
2013-02-17 10:21:00,26.0,6.0,29.13,NW,316,3.0,11.0,42,0.00,,,0.00,,2013-02-17 15:21:00,
2013-02-17 10:32:00,27.0,8.0,29.13,NW,315,4.0,9.0,44,0.00,,,0.00,,2013-02-17 15:32:00,
2013-02-17 10:42:00,27.0,8.0,29.13,NW,315,4.0,9.0,44,0.00,,,0.00,,2013-02-17 15:42:00,
2013-02-17 10:52:00,28.0,8.0,29.13,NNW,340,5.0,12.0,42,0.00,,,0.00,,2013-02-17 15:52:00,
2013-02-17 11:01:00,28.0,8.0,29.14,NNW,346,3.0,9.0,42,0.00,,,0.00,,2013-02-17 16:01:00,
2013-02-17 11:12:00,28.0,8.0,29.14,NNW,346,3.0,9.0,42,0.00,,,0.00,,2013-02-17 16:12:00,
2013-02-17 11:21:00,28.0,7.0,29.15,NNW,344,5.0,20.0,40,0.00,,,0.00,,2013-02-17 16:21:00,
2013-02-17 11:32:00,29.0,10.0,29.14,NW,322,2.0,7.0,44,0.00,,,0.00,,2013-02-17 16:32:00,
2013-02-17 11:52:00,28.0,8.0,29.15,NNE,20,3.0,9.0,42,0.00,,,0.00,,2013-02-17 16:52:00,
2013-02-17 12:02:00,29.0,9.0,29.15,WNW,292,2.0,10.0,42,0.00,,,0.00,,2013-02-17 17:02:00,
2013-02-17 12:11:00,29.0,9.0,29.15,WNW,292,2.0,10.0,42,0.00,,,0.00,,2013-02-17 17:11:00,
2013-02-17 12:21:00,28.0,6.0,29.15,NW,325,3.0,8.0,39,0.00,,,0.00,,2013-02-17 17:21:00,
2013-02-17 12:32:00,28.0,7.0,29.15,West,272,4.0,10.0,41,0.00,,,0.00,,2013-02-17 17:32:00,
2013-02-17 12:42:00,28.0,7.0,29.15,West,272,4.0,10.0,41,0.00,,,0.00,,2013-02-17 17:42:00,
2013-02-17 12:52:00,29.0,8.0,29.15,WNW,288,3.0,19.0,41,0.00,,,0.00,,2013-02-17 17:52:00,
2013-02-17 13:02:00,29.0,7.0,29.15,NW,309,3.0,9.0,39,0.00,,,0.00,,2013-02-17 18:02:00,
2013-02-17 13:11:00,29.0,7.0,29.15,NW,309,3.0,9.0,39,0.00,,,0.00,,2013-02-17 18:11:00,
2013-02-17 13:22:00,29.0,7.0,29.16,NNW,329,4.0,11.0,39,0.00,,,0.00,,2013-02-17 18:22:00,
2013-02-17 13:33:00,29.0,7.0,29.16,NNW,327,5.0,11.0,38,0.00,,,0.00,,2013-02-17 18:33:00,
2013-02-17 13:42:00,29.0,7.0,29.16,NNW,327,5.0,11.0,38,0.00,,,0.00,,2013-02-17 18:42:00,
2013-02-17 13:52:00,28.0,6.0,29.16,NW,321,2.0,14.0,39,0.00,,,0.00,,2013-02-17 18:52:00,
2013-02-17 14:01:00,28.0,6.0,29.18,North,355,4.0,13.0,39,0.00,,,0.00,,2013-02-17 19:01:00,
2013-02-17 14:11:00,28.0,6.0,29.18,North,355,4.0,13.0,39,0.00,,,0.00,,2013-02-17 19:11:00,
2013-02-17 14:22:00,27.0,5.0,29.18,NNW,327,5.0,11.0,38,0.00,,,0.00,,2013-02-17 19:22:00,
2013-02-17 14:32:00,27.0,6.0,29.18,WNW,297,5.0,10.0,40,0.00,,,0.00,,2013-02-17 19:32:00,
2013-02-17 14:42:00,27.0,6.0,29.18,WNW,297,5.0,10.0,40,0.00,,,0.00,,2013-02-17 19:42:00,
2013-02-17 14:52:00,27.0,5.0,29.18,NW,311,4.0,11.0,38,0.00,,,0.00,,2013-02-17 19:52:00,
2013-02-17 15:02:00,27.0,5.0,29.19,NW,316,2.0,9.0,38,0.00,,,0.00,,2013-02-17 20:02:00,
2013-02-17 15:11:00,27.0,5.0,29.19,NW,316,2.0,9.0,38,0.00,,,0.00,,2013-02-17 20:11:00,
2013-02-17 15:22:00,27.0,6.0,29.19,NW,322,3.0,16.0,40,0.00,,,0.00,,2013-02-17 20:22:00,
2013-02-17 15:32:00,27.0,5.0,29.19,NNW,343,2.0,10.0,39,0.00,,,0.00,,2013-02-17 20:32:00,
2013-02-17 15:42:00,27.0,5.0,29.19,NNW,343,2.0,10.0,39,0.00,,,0.00,,2013-02-17 20:42:00,
2013-02-17 15:52:00,27.0,5.0,29.20,NW,316,4.0,13.0,38,0.00,,,0.00,,2013-02-17 20:52:00,
2013-02-17 16:02:00,26.0,5.0,29.21,NW,311,4.0,18.0,40,0.00,,,0.00,,2013-02-17 21:02:00,
2013-02-17 16:11:00,26.0,5.0,29.21,NW,311,4.0,18.0,40,0.00,,,0.00,,2013-02-17 21:11:00,
2013-02-17 16:21:00,25.0,5.0,29.21,NNW,336,3.0,10.0,42,0.00,,,0.00,,2013-02-17 21:21:00,
2013-02-17 16:32:00,25.0,5.0,29.22,SE,132,5.0,13.0,41,0.00,,,0.00,,2013-02-17 21:32:00,
2013-02-17 16:42:00,25.0,5.0,29.22,SE,132,5.0,13.0,41,0.00,,,0.00,,2013-02-17 21:42:00,
2013-02-17 16:53:00,24.0,4.0,29.22,WNW,287,4.0,13.0,42,0.00,,,0.00,,2013-02-17 21:53:00,
2013-02-17 17:01:00,24.0,6.0,29.22,WNW,292,5.0,12.0,45,0.00,,,0.00,,2013-02-17 22:01:00,
2013-02-17 17:12:00,24.0,6.0,29.22,WNW,292,5.0,12.0,45,0.00,,,0.00,,2013-02-17 22:12:00,
2013-02-17 17:22:00,23.0,5.0,29.23,NW,309,3.0,14.0,45,0.00,,,0.00,,2013-02-17 22:22:00,
2013-02-17 17:32:00,22.0,5.0,29.25,NNW,334,3.0,13.0,47,0.00,,,0.00,,2013-02-17 22:32:00,
2013-02-17 17:42:00,22.0,5.0,29.25,NNW,334,3.0,13.0,47,0.00,,,0.00,,2013-02-17 22:42:00,
2013-02-17 17:52:00,22.0,5.0,29.26,WNW,296,4.0,16.0,47,0.00,,,0.00,,2013-02-17 22:52:00,
2013-02-17 18:02:00,21.0,4.0,29.27,North,350,2.0,9.0,48,0.00,,,0.00,,2013-02-17 23:02:00,
2013-02-17 18:11:00,21.0,4.0,29.27,North,350,2.0,9.0,48,0.00,,,0.00,,2013-02-17 23:11:00,
2013-02-17 18:21:00,21.0,4.0,29.28,NNW,331,3.0,12.0,48,0.00,,,0.00,,2013-02-17 23:21:00,
2013-02-17 18:32:00,20.0,5.0,29.30,NW,317,0.0,6.0,52,0.00,,,0.00,,2013-02-17 23:32:00,
2013-02-17 18:42:00,20.0,5.0,29.30,NW,317,0.0,6.0,52,0.00,,,0.00,,2013-02-17 23:42:00,
2013-02-17 18:52:00,20.0,5.0,29.31,NNW,332,2.0,9.0,51,0.00,,,0.00,,2013-02-17 23:52:00,
2013-02-17 19:01:00,20.0,4.0,29.32,WNW,288,4.0,11.0,49,0.00,,,0.00,,2013-02-18 00:01:00,
2013-02-17 19:11:00,20.0,4.0,29.32,WNW,288,4.0,11.0,49,0.00,,,0.00,,2013-02-18 00:11:00,
2013-02-17 19:22:00,19.0,4.0,29.32,NW,312,2.0,6.0,51,0.00,,,0.00,,2013-02-18 00:22:00,
2013-02-17 19:32:00,19.0,4.0,29.33,NW,308,2.0,11.0,51,0.00,,,0.00,,2013-02-18 00:32:00,
2013-02-17 19:41:00,19.0,4.0,29.33,NW,308,2.0,11.0,51,0.00,,,0.00,,2013-02-18 00:41:00,
2013-02-17 19:52:00,19.0,4.0,29.34,NW,311,4.0,12.0,51,0.00,,,0.00,,2013-02-18 00:52:00,
2013-02-17 20:01:00,18.0,3.0,29.34,NNW,329,2.0,10.0,52,0.00,,,0.00,,2013-02-18 01:01:00,
2013-02-17 20:12:00,18.0,3.0,29.34,NNW,329,2.0,10.0,52,0.00,,,0.00,,2013-02-18 01:12:00,
2013-02-17 20:21:00,17.0,4.0,29.35,NNW,331,3.0,11.0,55,0.00,,,0.00,,2013-02-18 01:21:00,
2013-02-17 20:32:00,17.0,4.0,29.35,WNW,297,2.0,10.0,55,0.00,,,0.00,,2013-02-18 01:32:00,
2013-02-17 20:42:00,17.0,4.0,29.35,WNW,297,2.0,10.0,55,0.00,,,0.00,,2013-02-18 01:42:00,
2013-02-17 20:52:00,16.0,3.0,29.36,NW,307,3.0,10.0,57,0.00,,,0.00,,2013-02-18 01:52:00,
2013-02-17 21:02:00,16.0,3.0,29.37,NW,323,2.0,11.0,56,0.00,,,0.00,,2013-02-18 02:02:00,
2013-02-17 21:11:00,16.0,3.0,29.37,NW,323,2.0,11.0,56,0.00,,,0.00,,2013-02-18 02:11:00,
2013-02-17 21:22:00,15.0,1.0,29.38,NW,317,6.0,17.0,54,0.00,,,0.00,,2013-02-18 02:22:00,
2013-02-17 21:32:00,15.0,2.0,29.39,West,281,3.0,11.0,55,0.00,,,0.00,,2013-02-18 02:32:00,
2013-02-17 21:42:00,15.0,2.0,29.39,West,281,3.0,11.0,55,0.00,,,0.00,,2013-02-18 02:42:00,
2013-02-17 21:52:00,15.0,2.0,29.40,NNW,331,5.0,20.0,55,0.00,,,0.00,,2013-02-18 02:52:00,
2013-02-17 22:01:00,14.0,1.0,29.41,NNW,335,3.0,11.0,56,0.00,,,0.00,,2013-02-18 03:01:00,
2013-02-17 22:11:00,14.0,1.0,29.41,NNW,335,3.0,11.0,56,0.00,,,0.00,,2013-02-18 03:11:00,
2013-02-17 22:21:00,14.0,1.0,29.41,WNW,299,3.0,12.0,56,0.00,,,0.00,,2013-02-18 03:21:00,
2013-02-17 22:32:00,14.0,2.0,29.41,NNW,330,2.0,11.0,57,0.00,,,0.00,,2013-02-18 03:32:00,
2013-02-17 22:42:00,14.0,2.0,29.41,NNW,330,2.0,11.0,57,0.00,,,0.00,,2013-02-18 03:42:00,
2013-02-17 22:52:00,14.0,2.0,29.41,NW,312,4.0,17.0,57,0.00,,,0.00,,2013-02-18 03:52:00,
2013-02-17 23:01:00,14.0,2.0,29.41,West,276,3.0,12.0,57,0.00,,,0.00,,2013-02-18 04:01:00,
2013-02-17 23:11:00,14.0,2.0,29.41,West,276,3.0,12.0,57,0.00,,,0.00,,2013-02-18 04:11:00,
2013-02-17 23:21:00,14.0,2.0,29.41,NW,321,3.0,12.0,57,0.00,,,0.00,,2013-02-18 04:21:00,
2013-02-17 23:32:00,14.0,2.0,29.41,NW,304,4.0,13.0,59,0.00,,,0.00,,2013-02-18 04:32:00,
2013-02-17 23:42:00,14.0,2.0,29.41,NW,304,4.0,13.0,59,0.00,,,0.00,,2013-02-18 04:42:00,
2013-02-17 23:52:00,15.0,3.0,29.42,WNW,297,4.0,16.0,58,0.00,,,0.00,,2013-02-18 04:52:00,